When you browse on this site, cookies collect data to enhance your experience and personalize the content and advertising you see.
Visit our Privacy Policy to learn more. By continuing to use the site, you agree to this use of cookies and data.
  • In United Kingdom
  • List of Countries
  • For 7 days
  • Water Temperature
  • Satellite Maps
  • Weather Map
  • Weather Widgets
  • user-avatar
    Login

    Hourly Weather Sololá

    Today, 24 July, Wednesday

    Time Temperature Precipitation Wind Pressure Humidity
    00:00 +13°C° 0.2 mm 1 mps 594 mmHg 92%
    01:00 +13°C° 0 mm 2 mps 594 mmHg 91%
    02:00 +12°C° 0 mm 2 mps 594 mmHg 90%
    03:00 +12°C° 0 mm 2 mps 593 mmHg 89%
    04:00 +12°C° 0 mm 2 mps 593 mmHg 86%
    05:00 +12°C° 0 mm 2 mps 593 mmHg 83%
    06:00 +12°C° 0 mm 2 mps 593 mmHg 80%
    07:00 +15°C° 0 mm 1 mps 595 mmHg 71%
    08:00 +18°C° 0 mm 1 mps 596 mmHg 62%
    09:00 +21°C° 0 mm 1 mps 598 mmHg 53%
    10:00 +22°C° 0 mm 1 mps 598 mmHg 52%
    11:00 +23°C° 0 mm 2 mps 598 mmHg 50%
    12:00 +24°C° 0 mm 2 mps 598 mmHg 48%
    13:00 +24°C° 0.5 mm 2 mps 597 mmHg 55%
    14:00 +23°C° 0.5 mm 2 mps 596 mmHg 61%
    15:00 +21°C° 0.5 mm 2 mps 595 mmHg 68%
    16:00 +21°C° 0.7 mm 1 mps 595 mmHg 74%
    17:00 +20°C° 0.7 mm 1 mps 595 mmHg 81%
    18:00 +19°C° 0.7 mm 1 mps 594 mmHg 87%
    19:00 +16°C° 0.4 mm 1 mps 594 mmHg 90%
    20:00 +15°C° 0.4 mm 1 mps 594 mmHg 93%
    21:00 +14°C° 0.4 mm 1 mps 594 mmHg 95%
    22:00 +14°C° 0.2 mm 1 mps 594 mmHg 95%
    23:00 +13°C° 0.2 mm 2 mps 594 mmHg 94%

    Tomorrow, 25 July, Thursday

    Time Temperature Precipitation Wind Pressure Humidity
    00:00 +13°C° 0.2 mm 2 mps 594 mmHg 94%
    01:00 +13°C° 0 mm 2 mps 593 mmHg 92%
    02:00 +13°C° 0 mm 2 mps 593 mmHg 91%
    03:00 +12°C° 0 mm 2 mps 592 mmHg 89%
    04:00 +12°C° 0 mm 2 mps 593 mmHg 88%
    05:00 +12°C° 0 mm 2 mps 593 mmHg 87%
    06:00 +12°C° 0 mm 2 mps 593 mmHg 86%
    07:00 +15°C° 0 mm 1 mps 594 mmHg 77%
    08:00 +18°C° 0 mm 1 mps 596 mmHg 68%
    09:00 +21°C° 0 mm 1 mps 597 mmHg 59%
    10:00 +21°C° 0.3 mm 1 mps 597 mmHg 62%
    11:00 +21°C° 0.3 mm 1 mps 597 mmHg 65%
    12:00 +21°C° 0.3 mm 2 mps 597 mmHg 68%
    13:00 +20°C° 1.7 mm 2 mps 596 mmHg 73%
    14:00 +21°C° 1.7 mm 1 mps 596 mmHg 79%
    15:00 +20°C° 1.7 mm 1 mps 595 mmHg 84%
    16:00 +19°C° 0.8 mm 1 mps 595 mmHg 87%
    17:00 +18°C° 0.8 mm 1 mps 594 mmHg 90%
    18:00 +18°C° 0.8 mm 1 mps 594 mmHg 94%
    19:00 +16°C° 0.1 mm 1 mps 594 mmHg 92%
    20:00 +14°C° 0.1 mm 1 mps 594 mmHg 91%
    21:00 +13°C° 0.1 mm 2 mps 594 mmHg 89%
    22:00 +13°C° 0 mm 2 mps 594 mmHg 87%
    23:00 +13°C° 0 mm 2 mps 594 mmHg 85%

    Day after tomorrow, 26 July, Friday

    Time Temperature Precipitation Wind Pressure Humidity
    00:00 +13°C° 0 mm 2 mps 594 mmHg 83%
    01:00 +13°C° 0 mm 2 mps 594 mmHg 83%
    02:00 +13°C° 0 mm 2 mps 593 mmHg 83%
    03:00 +13°C° 0 mm 2 mps 593 mmHg 83%
    04:00 +13°C° 0 mm 2 mps 593 mmHg 84%
    05:00 +13°C° 0 mm 2 mps 593 mmHg 85%
    06:00 +13°C° 0 mm 2 mps 593 mmHg 86%
    07:00 +15°C° 0 mm 2 mps 595 mmHg 76%
    08:00 +18°C° 0 mm 2 mps 596 mmHg 66%
    09:00 +21°C° 0 mm 1 mps 598 mmHg 57%
    10:00 +21°C° 0 mm 2 mps 598 mmHg 51%
    11:00 +23°C° 0 mm 2 mps 598 mmHg 45%
    12:00 +24°C° 0 mm 3 mps 598 mmHg 39%
    13:00 +24°C° 0.1 mm 3 mps 598 mmHg 43%
    14:00 +22°C° 0.1 mm 3 mps 597 mmHg 47%
    15:00 +22°C° 0.1 mm 3 mps 597 mmHg 51%
    16:00 +20°C° 0.3 mm 2 mps 596 mmHg 62%
    17:00 +19°C° 0.3 mm 2 mps 595 mmHg 73%
    18:00 +18°C° 0.3 mm 1 mps 595 mmHg 84%
    19:00 +15°C° 0.1 mm 2 mps 595 mmHg 87%
    20:00 +14°C° 0.1 mm 2 mps 595 mmHg 89%
    21:00 +13°C° 0.1 mm 2 mps 594 mmHg 91%
    22:00 +13°C° 0 mm 2 mps 594 mmHg 88%
    23:00 +12°C° 0 mm 2 mps 594 mmHg 84%

    27 July, Saturday

    Time Temperature Precipitation Wind Pressure Humidity
    00:00 +12°C° 0 mm 2 mps 594 mmHg 81%
    01:00 +12°C° 0 mm 2 mps 594 mmHg 80%
    02:00 +12°C° 0 mm 2 mps 593 mmHg 80%
    03:00 +12°C° 0 mm 2 mps 593 mmHg 80%
    04:00 +10°C° 0 mm 2 mps 593 mmHg 78%
    05:00 +10°C° 0 mm 2 mps 593 mmHg 76%
    06:00 +10°C° 0 mm 2 mps 593 mmHg 74%
    07:00 +14°C° 0 mm 2 mps 595 mmHg 65%
    08:00 +17°C° 0 mm 2 mps 596 mmHg 56%
    09:00 +19°C° 0 mm 2 mps 598 mmHg 46%
    10:00 +20°C° 0 mm 2 mps 598 mmHg 46%
    11:00 +21°C° 0 mm 2 mps 598 mmHg 45%
    12:00 +22°C° 0 mm 3 mps 598 mmHg 45%
    13:00 +22°C° 0.1 mm 3 mps 598 mmHg 47%
    14:00 +22°C° 0.1 mm 3 mps 597 mmHg 50%
    15:00 +22°C° 0.1 mm 3 mps 597 mmHg 53%
    16:00 +20°C° 0.4 mm 2 mps 596 mmHg 64%
    17:00 +19°C° 0.4 mm 2 mps 595 mmHg 75%
    18:00 +18°C° 0.4 mm 1 mps 595 mmHg 86%
    19:00 +16°C° 0 mm 1 mps 595 mmHg 88%
    20:00 +14°C° 0 mm 2 mps 595 mmHg 91%
    21:00 +13°C° 0 mm 2 mps 595 mmHg 93%
    22:00 +13°C° 0 mm 2 mps 594 mmHg 92%
    23:00 +13°C° 0 mm 2 mps 594 mmHg 90%

    28 July, Sunday

    Time Temperature Precipitation Wind Pressure Humidity
    00:00 +12°C° 0 mm 2 mps 594 mmHg 89%
    01:00 +12°C° 0 mm 2 mps 594 mmHg 87%
    02:00 +12°C° 0 mm 2 mps 594 mmHg 86%
    03:00 +12°C° 0 mm 2 mps 593 mmHg 85%
    04:00 +12°C° 0 mm 2 mps 593 mmHg 84%
    05:00 +13°C° 0 mm 2 mps 594 mmHg 83%
    06:00 +13°C° 0 mm 2 mps 594 mmHg 82%
    07:00 +15°C° 0 mm 2 mps 595 mmHg 77%
    08:00 +17°C° 0 mm 2 mps 596 mmHg 72%
    09:00 +19°C° 0 mm 2 mps 597 mmHg 67%
    10:00 +20°C° 0.2 mm 2 mps 597 mmHg 63%
    11:00 +21°C° 0.2 mm 2 mps 598 mmHg 59%
    12:00 +22°C° 0.2 mm 3 mps 598 mmHg 54%
    13:00 +21°C° 0.9 mm 3 mps 597 mmHg 61%
    14:00 +20°C° 0.9 mm 3 mps 596 mmHg 67%
    15:00 +19°C° 0.9 mm 2 mps 595 mmHg 73%
    16:00 +18°C° 0.5 mm 2 mps 595 mmHg 77%
    17:00 +17°C° 0.5 mm 2 mps 595 mmHg 82%
    18:00 +18°C° 0.5 mm 1 mps 595 mmHg 86%
    19:00 +15°C° 0.2 mm 1 mps 594 mmHg 88%
    20:00 +14°C° 0.2 mm 2 mps 594 mmHg 89%
    21:00 +13°C° 0.2 mm 2 mps 594 mmHg 90%
    22:00 +13°C° 0.1 mm 2 mps 594 mmHg 87%
    23:00 +14°C° 0.1 mm 2 mps 594 mmHg 84%

    29 July, Monday

    Time Temperature Precipitation Wind Pressure Humidity
    00:00 +14°C° 0.1 mm 2 mps 595 mmHg 81%
    01:00 +14°C° 0 mm 2 mps 594 mmHg 80%
    02:00 +13°C° 0 mm 2 mps 594 mmHg 78%
    03:00 +13°C° 0 mm 2 mps 593 mmHg 76%
    04:00 +13°C° 0 mm 2 mps 593 mmHg 76%
    05:00 +12°C° 0 mm 2 mps 593 mmHg 75%
    06:00 +12°C° 0 mm 2 mps 593 mmHg 74%
    07:00 +15°C° 0 mm 2 mps 594 mmHg 65%
    08:00 +17°C° 0 mm 2 mps 596 mmHg 55%
    09:00 +20°C° 0 mm 2 mps 597 mmHg 45%
    10:00 +21°C° 0 mm 3 mps 597 mmHg 43%
    11:00 +21°C° 0 mm 3 mps 598 mmHg 41%
    12:00 +22°C° 0 mm 4 mps 598 mmHg 38%
    13:00 +22°C° 0 mm 4 mps 597 mmHg 42%
    14:00 +22°C° 0 mm 4 mps 597 mmHg 45%
    15:00 +22°C° 0 mm 4 mps 596 mmHg 49%
    16:00 +20°C° 0.2 mm 3 mps 595 mmHg 60%
    17:00 +18°C° 0.2 mm 3 mps 595 mmHg 70%
    18:00 +16°C° 0.2 mm 2 mps 594 mmHg 81%
    19:00 +15°C° 0 mm 2 mps 594 mmHg 81%
    20:00 +14°C° 0 mm 2 mps 593 mmHg 81%
    21:00 +13°C° 0 mm 2 mps 593 mmHg 81%
    22:00 +12°C° 0 mm 2 mps 593 mmHg 79%
    23:00 +12°C° 0 mm 2 mps 593 mmHg 76%
    Show more